Creek Data

    Home     View Charts     View Raw Data     Messages

ID Distance Battery Voltage Battery Current Internal Temp Internal Humidity External Temp Solar Input rssi snr Time Stamp Record
33817 14.8 3.97 -5 48 39 49 0.1 -72 7 03/02/2025 01:30 AM 15519
33816 14.8 3.92 -5 48 39 49 0 -75 8 03/02/2025 01:15 AM 15518
33815 14.8 3.97 -5 48 39 49 0.1 -71 8 03/02/2025 01:00 AM 15517
33814 14.8 3.92 -5 49 39 50 0 -73 8 03/02/2025 12:45 AM 15516
33813 14.8 3.97 -5 49 39 50 0 -73 8 03/02/2025 12:30 AM 15515
33812 14.8 3.92 -5 50 39 51 0.1 -73 8 03/02/2025 12:15 AM 15514
33811 14.8 3.92 -5 50 39 51 0.1 -73 8 03/02/2025 12:00 AM 15513
33810 14.8 3.92 -5 51 39 51 0 -72 8 03/01/2025 11:45 PM 15512
33809 14.8 3.98 -5 51 39 52 0 -72 8 03/01/2025 11:30 PM 15511
33808 14.8 3.92 -5 52 39 52 0 -72 7 03/01/2025 11:15 PM 15510
33807 14.8 3.92 -5 53 38 53 0 -71 7 03/01/2025 11:00 PM 15509
33806 14.9 3.92 -5 53 38 53 0 -72 8 03/01/2025 10:45 PM 15508
33805 14.8 3.98 -5 53 39 54 0 -71 8 03/01/2025 10:30 PM 15507
33804 14.8 3.98 -5 53 39 54 0.1 -72 8 03/01/2025 10:15 PM 15506
33803 14.9 3.93 -5 52 39 53 0 -74 8 03/01/2025 10:00 PM 15505
33802 14.9 3.98 -5 52 39 53 0 -74 8 03/01/2025 09:45 PM 15504
33801 14.9 3.93 -5 53 38 53 0 -77 8 03/01/2025 09:30 PM 15503
33800 14.9 3.93 -5 53 38 54 0.1 -74 8 03/01/2025 09:15 PM 15502
33799 14.9 3.93 -5 53 38 54 0.1 -73 8 03/01/2025 09:00 PM 15501
33798 14.8 3.98 -5 53 38 54 0 -73 8 03/01/2025 08:45 PM 15500
33797 14.9 3.93 -5 52 38 54 0.1 -73 8 03/01/2025 08:30 PM 15499
33796 14.9 3.93 -5 50 39 53 0.1 -74 8 03/01/2025 08:15 PM 15498
33795 14.8 3.99 -5 50 39 51 0 -73 8 03/01/2025 08:00 PM 15497
33794 14.8 3.93 -5 50 40 51 0 -72 8 03/01/2025 07:45 PM 15496
33793 0.0 3.93 -5 50 40 51 0 -72 8 03/01/2025 07:30 PM 15495